Weather Service Report


048 
ASUS46 KSTO 240709
RWRCA 

NORTHERN AND CENTRAL CA REGIONAL WEATHER ROUNDUP
NATIONAL WEATHER SERVICE SACRAMENTO CA 
1200 AM PDT THU JUL 24 2014

NOTE: FAIR INDICATES FEW OR NO CLOUDS BELOW 12,000 FEET WITH NO
SIGNIFICANT WEATHER AND/OR OBSTRUCTIONS TO VISIBILITY.

CAZ001-003-240800-
NORTHWEST AREA
  
CITY           SKY/WX    TMP DP  RH WIND       PRES   REMARKS
CRESCENT CITY  CLEAR     55  53  93 N5        30.24R                  
ARCATA         NOT AVBL                                               
SHELTER COVE   NOT AVBL                                               
UKIAH          CLEAR     65  53  65 N5        30.08S                  
$$

CAZ006-505>513-240800-
BAY AREA
  
CITY           SKY/WX    TMP DP  RH WIND       PRES   REMARKS
SANTA ROSA     CLEAR     62  56  80 S3        30.02S                  
SAN RAFAEL     N/A       67  MM  MM MISG
NAPA           CLEAR     61  57  87 SW6       30.02S                  
CONCORD        CLEAR     67  57  70 S13       30.02S                  
OAKLAND CITY   N/A       66  MM  MM MISG
OAKLAND        PTCLDY    65  58  78 W3        30.05S                  
SAN FRAN CITY  N/A       62  MM  83 MISG
SAN FRAN ARPT  PTCLDY    65  59  81 W17       30.05S                  
LIVERMORE      CLEAR     64  59  83 W6        30.04S                  
HAYWARD        CLEAR     67  62  84 W3        30.05S                  
REDWOOD CITY   N/A       MM  MM  MM MISG
MOFFETT ARPT   CLEAR     66  56  70 N5        30.06S                  
SAN JOSE ARPT  CLEAR     64  57  78 N5        30.05F                  
$$
CAZ034-037-514>518-240800-
CENTRAL COAST
  
CITY           SKY/WX    TMP DP  RH WIND       PRES   REMARKS
WATSONVILLE    CLEAR     64  57  78 CALM      30.05S                  
SALINAS        CLEAR     63  57  81 NW7       30.05R                  
MONTEREY       CLEAR     62  57  83 SW6       30.07R                  
PT PIEDRAS BLS NOT AVBL                                               
SAN LUIS OBISP CLEAR     62  59  90 NW6       29.98S                  
SANTA MARIA    CLEAR     63  58  83 NW6       29.98F                  
$$
CAZ015-016-240800-
NORTHERN SACRAMENTO VALLEY
  
CITY           SKY/WX    TMP DP  RH WIND       PRES   REMARKS
REDDING        CLEAR     73  47  39 CALM      30.00R                  
RED BLUFF      CLEAR     74  51  44 N6        30.00S                  
OROVILLE       CLEAR     74  46  36 E7        29.99S                  
$$
CAZ016>018-240800-
SOUTHERN SACRAMENTO VALLEY
  
CITY           SKY/WX    TMP DP  RH WIND       PRES   REMARKS
AUBURN         CLEAR     66  50  55 CALM      30.05R                  
BEALE AFB      CLEAR     71  47  42 E7        29.98R                  
LINCOLN        FAIR      66  48  52 E6        29.98S                  
MARYSVILLE     CLEAR     69  60  73 E5        29.98R                  
SAC INTL ARPT  CLEAR     67  56  67 S8        29.97R                  
MATHER AIRPORT NOT AVBL                                               
DOWNTOWN SAC   N/A       69  MM  MM MISG
SAC EXEC ARPT  CLEAR     68  57  68 SW6       29.98S                  
VACAVILLE      CLEAR     70  56  61 SW6       29.99R                  
TRAVIS AFB     CLEAR     67  60  80 SW18      29.97S                  
$$
CAZ019>021-240800-
SAN JOAQUIN VALLEY
  
CITY           SKY/WX    TMP DP  RH WIND       PRES   REMARKS
STOCKTON       CLEAR     67  58  72 W8        29.99S                  
MODESTO        CLEAR     72  55  55 NW8       29.99R                  
MERCED         CLEAR     73  57  57 N9        29.99R                  
LEMOORE        CLEAR     73  57  57 NW5       29.98S                  
FRESNO         CLEAR     77  54  44 W8        29.98S                  
HANFORD        CLEAR     76  57  51 NW10      29.98S                  
PORTERVILLE    CLEAR     75  55  50 NW6       30.00S                  
BAKERSFIELD    CLEAR     80  59  48 N6        29.99R                  
$$
CAZ011-012-071-240800-
NORTHERN MOUNTAINS
  
CITY           SKY/WX    TMP DP  RH WIND       PRES   REMARKS
YREKA          CLEAR     56  46  69 N10       30.20R                  
MOUNT SHASTA   CLEAR     57  43  59 VRB3      30.18R                  
ALTURAS        CLEAR     59  42  53 W7        30.19R                  
$$
CAZ011-012-071-240800-
SIERRA NEVADA MTNS
  
CITY           SKY/WX    TMP DP  RH WIND       PRES   REMARKS
BLUE CANYON    CLEAR     61  37  41 CALM      30.24S                  
TRUCKEE        CLEAR     46  37  71 CALM      30.27S                  
TAHOE VLY ARPT CLEAR     53  40  61 CALM      30.28R                  
MAMMOTH LAKES  FAIR      59  25  27 W5        30.31R                  
$$
  

Return to Home page


Western Regional Climate Center, wrcc@dri.edu